2020-102E (47300 NORAD) Tracking and Keplerian Element Data

This shows tracking and keplerian element data for the satellite.

Feedback or suggestion? Click here.




ElementValue
Catalog47300
Name2020-102E
Epoch Orbit453
Epoch Day21.06517884
Epoch Year2021
RAAN121.0474
Inclination97.4346
Eccentricity0.0005265
Argument of Perigee30.2009
Mean Anonmoly71.4238
Mean Motion15.20517532
Decay Rate1.262E-05
L11 47300U 20102E 21021.06517884 .00001262 00000-0 60870-4 0 9990
L22 47300 97.4346 121.0474 0005265 30.2009 71.4238 15.20517532 4538

Live tracking and technical data element details for 2020-102E (NORAD 47300). 2020-102E can be tracked NOW for your location showing map with azimuth and elevation plus other details from your city location.

Track the satellite on the map from your city or location and see movement details for azimuth, elevation, latitude, longitude, range, height, and movement on the map or in text.







IsCatalogInMostPopularTable: catalog: 47300, numindb: 12
Update: records affected: 1



GetName: 47300 2020-102E

Hit Count: updated at: Sat, 23 Jan 2021 16:29:38 GMT